TimeEDT,TemperatureF,Dew PointF,Humidity,Sea Level PressureIn,VisibilityMPH,Wind Direction,Wind SpeedMPH,Gust SpeedMPH,PrecipitationIn,Events,Conditions,WindDirDegrees,DateUTC
12:16 AM,29.1,21.2,72,30.08,10.0,WSW,3.5,-,N/A,,Clear,240,2013-03-15 04:16:00
12:36 AM,28.9,21.6,74,30.08,10.0,WSW,4.6,-,N/A,,Clear,240,2013-03-15 04:36:00
12:56 AM,30.0,21.7,71,30.08,10.0,WSW,6.9,-,N/A,,Clear,240,2013-03-15 04:56:00
1:16 AM,30.2,21.6,70,30.07,10.0,WSW,6.9,-,N/A,,Clear,240,2013-03-15 05:16:00
1:36 AM,30.4,21.2,69,30.07,10.0,WSW,5.8,-,N/A,,Clear,250,2013-03-15 05:36:00
1:56 AM,30.2,21.0,69,30.06,10.0,WSW,5.8,-,N/A,,Clear,240,2013-03-15 05:56:00
2:16 AM,30.0,21.2,70,30.06,10.0,WSW,5.8,-,N/A,,Clear,240,2013-03-15 06:16:00
2:36 AM,29.8,21.2,70,30.05,10.0,WSW,5.8,-,N/A,,Clear,250,2013-03-15 06:36:00
3:16 AM,29.8,21.2,70,30.04,10.0,SW,4.6,-,N/A,,Clear,230,2013-03-15 07:16:00
3:36 AM,29.8,21.2,70,30.03,10.0,SW,4.6,-,N/A,,Clear,230,2013-03-15 07:36:00
3:56 AM,29.7,21.2,71,30.01,10.0,SW,5.8,-,N/A,,Scattered Clouds,230,2013-03-15 07:56:00
4:16 AM,29.8,21.4,71,30.01,10.0,WSW,6.9,-,N/A,,Scattered Clouds,250,2013-03-15 08:16:00
4:36 AM,30.6,21.6,69,30.00,10.0,WSW,6.9,-,N/A,,Overcast,240,2013-03-15 08:36:00
4:57 AM,30.7,21.4,68,29.99,10.0,WSW,5.8,-,N/A,,Overcast,250,2013-03-15 08:57:00
5:16 AM,31.1,21.4,67,29.99,10.0,WSW,8.1,-,N/A,,Overcast,250,2013-03-15 09:16:00
5:36 AM,31.6,21.4,66,29.98,10.0,WSW,9.2,-,N/A,,Overcast,250,2013-03-15 09:36:00
5:56 AM,31.8,21.4,65,29.98,10.0,WSW,8.1,17.3,N/A,,Overcast,240,2013-03-15 09:56:00
6:16 AM,32.0,21.6,65,29.97,10.0,WSW,9.2,-,N/A,,Overcast,250,2013-03-15 10:16:00
6:36 AM,32.0,21.7,66,29.96,10.0,WSW,9.2,-,N/A,,Overcast,240,2013-03-15 10:36:00
6:56 AM,32.0,21.9,66,29.96,10.0,WSW,10.4,16.1,N/A,,Overcast,250,2013-03-15 10:56:00
7:16 AM,32.0,22.6,68,29.95,10.0,WSW,9.2,-,N/A,,Overcast,240,2013-03-15 11:16:00
7:36 AM,31.8,23.0,70,29.95,10.0,WSW,6.9,-,N/A,,Scattered Clouds,240,2013-03-15 11:36:00
8:16 AM,32.0,23.2,70,29.95,10.0,WSW,6.9,-,N/A,,Mostly Cloudy,240,2013-03-15 12:16:00
8:36 AM,32.0,23.7,71,29.94,10.0,SW,5.8,-,N/A,,Overcast,230,2013-03-15 12:36:00
8:57 AM,32.5,24.6,73,29.94,10.0,SW,6.9,-,N/A,,Overcast,230,2013-03-15 12:57:00
9:16 AM,32.9,25.2,73,29.93,10.0,SW,5.8,-,N/A,,Overcast,230,2013-03-15 13:16:00
9:36 AM,33.8,25.7,72,29.93,10.0,WSW,11.5,16.1,N/A,,Overcast,250,2013-03-15 13:36:00
9:56 AM,34.2,25.5,71,29.93,10.0,WSW,11.5,16.1,N/A,,Overcast,240,2013-03-15 13:56:00
10:16 AM,35.4,26.2,69,29.92,10.0,WSW,11.5,-,N/A,,Overcast,240,2013-03-15 14:16:00
10:36 AM,35.8,26.2,68,29.92,10.0,WSW,12.7,18.4,N/A,,Mostly Cloudy,250,2013-03-15 14:36:00
10:56 AM,36.0,26.8,69,29.92,10.0,West,11.5,18.4,N/A,,Mostly Cloudy,260,2013-03-15 14:56:00
11:16 AM,36.5,27.3,69,29.91,10.0,WSW,12.7,17.3,N/A,,Overcast,250,2013-03-15 15:16:00
11:36 AM,36.5,27.3,69,29.90,10.0,WSW,9.2,16.1,N/A,,Overcast,250,2013-03-15 15:36:00
11:56 AM,37.2,27.7,68,29.90,10.0,SW,10.4,16.1,N/A,,Overcast,230,2013-03-15 15:56:00
12:16 PM,37.6,28.2,69,29.90,10.0,WSW,9.2,-,N/A,,Overcast,240,2013-03-15 16:16:00
12:36 PM,38.3,28.2,67,29.89,10.0,WSW,11.5,16.1,N/A,,Overcast,240,2013-03-15 16:36:00
12:57 PM,39.0,28.4,66,29.88,10.0,WSW,11.5,16.1,N/A,,Overcast,250,2013-03-15 16:57:00
1:16 PM,40.1,28.9,64,29.88,10.0,WSW,12.7,-,N/A,,Overcast,250,2013-03-15 17:16:00
1:36 PM,40.5,29.1,64,29.87,10.0,WSW,12.7,-,N/A,,Overcast,250,2013-03-15 17:36:00
1:56 PM,41.0,29.3,63,29.87,10.0,West,11.5,20.7,N/A,,Overcast,260,2013-03-15 17:56:00
2:16 PM,41.0,29.3,63,29.86,10.0,West,11.5,16.1,N/A,,Overcast,260,2013-03-15 18:16:00
2:36 PM,41.9,29.8,62,29.85,10.0,West,13.8,-,N/A,,Overcast,270,2013-03-15 18:36:00
2:56 PM,41.7,30.0,63,29.85,10.0,West,9.2,17.3,N/A,,Overcast,260,2013-03-15 18:56:00
3:16 PM,41.4,30.2,65,29.85,10.0,West,10.4,-,N/A,,Overcast,270,2013-03-15 19:16:00
3:36 PM,41.4,30.2,65,29.84,10.0,West,8.1,-,N/A,,Overcast,280,2013-03-15 19:36:00
3:56 PM,41.0,30.4,66,29.84,10.0,West,9.2,17.3,N/A,,Overcast,260,2013-03-15 19:56:00
4:16 PM,41.7,30.7,65,29.83,10.0,West,8.1,16.1,N/A,,Overcast,260,2013-03-15 20:16:00
4:36 PM,42.1,30.7,64,29.83,10.0,West,9.2,-,N/A,,Overcast,260,2013-03-15 20:36:00
4:57 PM,42.3,30.9,64,29.83,10.0,West,11.5,-,N/A,,Overcast,280,2013-03-15 20:57:00
5:16 PM,42.1,30.9,65,29.83,10.0,West,9.2,-,N/A,,Overcast,270,2013-03-15 21:16:00
5:36 PM,41.9,31.1,66,29.83,10.0,West,10.4,-,N/A,,Overcast,280,2013-03-15 21:36:00
5:57 PM,41.9,31.3,66,29.83,10.0,West,9.2,-,N/A,,Overcast,270,2013-03-15 21:57:00
6:16 PM,41.7,31.8,68,29.83,10.0,West,11.5,-,N/A,,Overcast,280,2013-03-15 22:16:00
6:36 PM,40.8,32.0,71,29.84,10.0,NW,8.1,-,N/A,Rain,Rain,320,2013-03-15 22:36:00
7:16 PM,37.4,32.9,84,29.84,5.0,NNW,4.6,-,N/A,,Drizzle,330,2013-03-15 23:16:00
7:36 PM,36.5,33.3,88,29.85,5.0,NNW,4.6,-,N/A,,Drizzle,330,2013-03-15 23:36:00
7:56 PM,35.4,35.2,99,29.86,5.0,NNW,3.5,-,N/A,,Drizzle,340,2013-03-15 23:56:00
8:16 PM,34.2,34.5,100,29.86,4.0,NNW,4.6,-,0.01,Rain,Rain,340,2013-03-16 00:16:00
8:36 PM,33.8,34.0,100,29.86,4.0,NNW,3.5,-,0.01,Rain,Rain,340,2013-03-16 00:36:00
8:57 PM,33.3,33.4,100,29.87,2.5,Calm,Calm,-,0.02,,Overcast,0,2013-03-16 00:57:00
9:16 PM,33.3,33.3,100,29.86,3.0,Calm,Calm,-,N/A,,Overcast,0,2013-03-16 01:16:00
9:36 PM,33.1,33.1,100,29.86,3.0,Calm,Calm,-,N/A,Snow,Light Snow,0,2013-03-16 01:36:00
9:56 PM,32.9,32.9,100,29.86,2.5,Calm,Calm,-,N/A,Rain,Light Rain,0,2013-03-16 01:56:00
10:16 PM,32.9,32.9,100,29.86,2.0,Calm,Calm,-,N/A,,Overcast,0,2013-03-16 02:16:00
10:36 PM,32.9,33.1,100,29.86,1.8,Calm,Calm,-,N/A,Snow,Light Snow,0,2013-03-16 02:36:00
10:57 PM,32.9,32.9,100,29.86,1.2,Calm,Calm,-,N/A,Snow,Light Snow,0,2013-03-16 02:57:00
11:16 PM,32.5,32.5,100,29.86,1.2,Calm,Calm,-,N/A,Rain,Rain,0,2013-03-16 03:16:00
11:36 PM,32.9,32.9,100,29.85,1.0,Calm,Calm,-,N/A,Rain,Rain,0,2013-03-16 03:36:00
11:56 PM,32.5,32.5,100,29.85,1.2,Calm,Calm,-,N/A,Rain,Light Rain,0,2013-03-16 03:56:00